YAOGAN 29

Satellite information

Favourite Embed

Satellite Type and Status

PAYLOADIN ORBIT

Key statistics

Satellite YAOGAN 29 at a glance.

Uptime

3622

Days in orbit

Revolutions

≈ 14.8

Per day

Orbit

SSO

Sun Synchronous Orbit

Inclination

98.0

Latest

Satellite identification and parameters

Extended collection of information and parameters for YAOGAN 29.

Object identification

Identified? True

Debris? False

Object name: YAOGAN 29

International designator: 2015-069A

Object number (NORAD): 41038

Object ID (CCSDS): 41038

Country: PEOPLES REPUBLIC OF CHINA (PRC)

Current information (Y/N): Y

RCS size: LARGE

Orbital parameters

Period: 97.113 minutes

Inclination: 98.0272 deg

SMA: 6998.627 km

Apoapsis: 622.468 km

Periapsis: 618.517 km

RAAN: 321.9825 deg

Eccentricy: 0.00028226

Argument of periapsis: 78.103 deg

Mean anomaly: 282.05 deg

Mean motion: 14.82803068 rev/day

Mean motion (dot): 0.00000676 rev/day2

B* drag term: 0.000090346191 1/REarth

Two-line elements (TLE)

Creation date: Oct. 26, 2025, 2:54 a.m.

Reference frame: TEME

Reference center: EARTH

Epoch: Oct. 25, 2025, 11:26 p.m. UTC

TLE line 0: 0 YAOGAN 29

TLE line 1: 1 41038U 15069A 25298.97694572 .00000676 00000-0 90346-4 0 9997

TLE line 2: 2 41038 98.0272 321.9825 0002823 78.1030 282.0500 14.82803068535910

Live tracking on map

Real-time ground track for satellite YAOGAN 29.

In-orbit conjunctions

There are no conjunctions computed for YAOGAN 29, at the moment. Check back to stay up to date, as we update our databases every day.

Go to all conjunctions

Associated space launch

YAOGAN 29 was lifted into orbit during the mission ‘Long March 4C | Yaogan-29’, on board a Long March 4C space rocket.

The launch took place on Nov. 26, 2015, 9:24 p.m. from Launch Complex 9.

For more information about the launch, click the button.

Launch to space Long March 4C | Yaogan-29
Long March 4C | Yaogan-29

Agency: N/A

Status: Launch Successful

Launch date: Nov. 26, 2015, 9:24 p.m. UTC

Rocket: Long March 4C

Launch pad: Launch Complex 9

Location: Taiyuan Satellite Launch Center, People's Republic of China

...

Latest news about this satellite

There are no fresh news available about this satellite. Check back as we update our databases every day.


Newsletter sign-up

Weekly statistics, charts and insights to help you stay on top of the space industry.